Mae Hong Son, Thailand

7:09 PM +07 on May 27, 2017 (GMT +0700)
Mae Hong Son

Weather History for VTCH - February, 2014

Change the Weather History Date:

Monday, February 17, 2014

  Actual Average Record
Temperature  
Mean Temperature 76 °F -  
Max Temperature 91 °F 94 °F - ()
Min Temperature 60 °F 60 °F - ()
Cooling Degree Days 10    
Growing Degree Days 26 (Base 50)    
Moisture  
Dew Point 60 °F    
Average Humidity 56    
Maximum Humidity 94    
Minimum Humidity 29    
Precipitation  
Precipitation 0.00 in 0.00 in - ()
Sea Level Pressure  
Sea Level Pressure 29.92 in    
Wind  
Wind Speed 2 mph ()    
Max Wind Speed 7 mph    
Max Gust Speed -    
Visibility 5.6 miles    
Events      
T = Trace of Precipitation, MM = Missing Value Source: Averaged Metar Reports

Daily Weather History Graph

Daily Weather History Graph

Search for Another Location

Airport or City:

Trip Planner

Search our weather history database for the weather conditions in past years. The results will help you decide how hot, cold, wet, or windy it might be!

Date:

Astronomy

Feb. 17, 2014 Rise Set
Actual Time 6:55 AM +07 6:28 PM +07
Civil Twilight 6:33 AM +07 6:51 PM +07
Nautical Twilight 6:07 AM +07 7:16 PM +07
Astronomical Twilight 5:41 AM +07 7:42 PM +07
Moon 8:26 PM +07 (2/17) 8:02 AM +07 (2/17)
Length of Visible Light 12h 17m
Length of Day
11h 33m
Waning Gibbous, 95% of the Moon is Illuminated
Feb 17
Waning Gibbous
Feb 23
Last Quarter
Mar 1
New
Mar 8
First Quarter
Mar 17
Full

Hourly Weather History & Observations

Time (+07) Temp. Heat Index Dew Point Humidity Pressure Visibility Wind Dir Wind Speed Gust Speed Precip Events Conditions
1:00 AM 68 °F - 64 °F 85% 29.93 in 6 mi Calm Calm - -   Scattered Clouds
4:00 AM 64 °F - 61 °F 87% 29.92 in 5 mi Calm Calm - -   Mist
7:00 AM 63 °F - 62 °F 93% 29.97 in 1 mi Calm Calm - -   Mist
7:00 AM 60.8 °F - 59.0 °F 94% 29.95 in 1.2 mi Variable 2.3 mph - N/A   Partly Cloudy
8:00 AM 64.4 °F - 59.0 °F 83% 29.98 in 2.5 mi Variable 2.3 mph - N/A   Partly Cloudy
9:00 AM 68.0 °F - 60.8 °F 78% 30.01 in 5.0 mi Variable 2.3 mph - N/A   Partly Cloudy
10:00 AM 74 °F - 65 °F 66% 29.99 in 6 mi Calm Calm - -   Scattered Clouds
10:00 AM 73.4 °F - 60.8 °F 65% 30.01 in 6.2 mi Variable 2.3 mph - N/A   Partly Cloudy
11:00 AM 78.8 °F - 62.6 °F 57% 30.01 in 6.2 mi West 4.6 mph - N/A   Partly Cloudy
12:00 PM 84.2 °F 84.4 °F 60.8 °F 45% 29.98 in 6.2 mi Variable 2.3 mph - N/A   Partly Cloudy
1:00 PM 86 °F - 64 °F 38% 29.92 in 7 mi SSW 5.8 mph - -   Partly Cloudy
1:00 PM 86.0 °F 84.9 °F 57.2 °F 37% 29.95 in 6.2 mi West 4.6 mph - N/A   Scattered Clouds
2:00 PM 87.8 °F 86.1 °F 55.4 °F 33% 29.89 in 6.2 mi Variable 5.8 mph - N/A   Partly Cloudy
3:00 PM 89.6 °F 87.7 °F 55.4 °F 31% 29.86 in 6.2 mi SSE 6.9 mph - N/A   Scattered Clouds
4:00 PM 91 °F - 63 °F 29% 29.79 in 9 mi SSW 5.8 mph - -   Scattered Clouds
4:00 PM 89.6 °F 87.7 °F 55.4 °F 31% 29.83 in 6.2 mi Variable 4.6 mph - N/A   Partly Cloudy
5:00 PM 87.8 °F 85.7 °F 53.6 °F 31% 29.83 in 6.2 mi South 4.6 mph - N/A   Scattered Clouds
6:00 PM 86.0 °F - 51.8 °F 31% 29.83 in 6.2 mi South 5.8 mph - N/A   Scattered Clouds
7:00 PM 84 °F - 60 °F 33% 29.83 in 7 mi Calm Calm - -   Partly Cloudy
10:00 PM 73 °F - 63 °F 64% 29.91 in 7 mi Calm Calm - -   Scattered Clouds